www.pogodaiklimat.ru

Погода и климат >> Архив погоды >> Россия >> Эвенкия >> Кузьмовка


ПОГОДА в Кузьмовке

  • Прогноз погоды в Кузьмовке
  • Монитор погоды в Кузьмовке

АРХИВ ПОГОДЫ в Кузьмовке

Время (UTC), дата Ветер
(напр.,м/с)
 
Видим.   Явления Облачность Т
(С)
Тd
(С)
f
(%)
Тe
(С)
Тes
(С)
Комфортность P
(гПа)
Po
(гПа)
Тmin
(С)
Tmax
(С)
R
(мм)
R24
(мм)
S
(см)
09 14.01 штиль 0 4000 м слаб. снег 10/0 2000 м
[As op]
-18.2 -20.8 80 -18 -18 1023.2 1014.8
12 14.01 штиль 0 4000 м слаб. снег 10/0 2000 м
[As op]
-17.2 -19.8 80 -17 -17 1023.9 1015.4 -17.2 3
00 15.01 В 1 20 км {снег} ясно -16.6 -18.5 85 -19 -19 1020.6 1012.2 -17.2 1 71
03 15.01 В 1 20 км 10/0 2000 м
[Ac As]
-16.3 -18.2 85 -19 -19 1018.8 1010.5
06 15.01 В 1 20 км 10/0 2000 м
[Ac und Cs]
-17.0 -18.9 85 -20 -20 1016.9 1008.5
09 15.01 В 2 20 км 10/0
[Ac As]
-17.6 -19.5 85 -23 -23 1014.1 1005.7
12 15.01 В 1 20 км 10/0
[Ac As]
-17.4 -19.3 85 -20 -20 1011.1 1002.8 -16.1
15 15.01 ЮВ 2 20 км 10/0
[As trans]
-9.8 -12.9 78 -14 -14 1009.1 1001.0
18 15.01 ЮВ 2 20 км 10/0
[As trans]
-9.8 -12.9 78 -14 -14 1009.1 1001.0
00 16.01 Ю 2 4000 м слаб. снег 10/0
[As op]
-15.5 -17.4 85 -21 -21 1012.0 1003.8 -17.4 0.8 73
03 16.01 штиль 0 10 км слаб. снег 10/0
[As trans]
-18.5 -20.4 85 -19 -19 1013.4 1000.4 -18.5
06 16.01 штиль 0 10 км слаб. снег 10/0
[Cs]
-19.3 -21.2 85 -19 -19 1015.7 1007.2
09 16.01 штиль 0 10 км слаб. снег 10/0 2000 м
[Ac As]
-19.8 -21.6 86 -20 -20 1017.2 1008.7
00 17.01 штиль 0 10 км слаб. снег 10/0
[As op]
-17.0 -18.9 85 -17 -17 1018.1 1009.7 -19.0 2 76
03 17.01 штиль 0 4000 м слаб. снег 10/0 2000 м
[As op]
-16.0 -17.9 85 -16 -16 1018.8 1010.5
06 17.01 Ю 2 10 км слаб. снег 10/0 2000 м
[As trans]
-14.5 -16.5 85 -19 -19 1020.5 1012.2
09 17.01 Ю 1 10 км слаб. снег 10/0 2000 м
[As trans]
-15.4 -18.1 80 -18 -18 1022.4 1014.2
12 17.01 штиль 0 10 км слаб. снег 10/0
[As trans]
-17.3 -19.2 85 -17 -17 1025.8 1017.3 -13.5 1
15 17.01 штиль 0 10 км слаб. снег 10/0 2000 м
[As trans]
-17.8 -19.7 85 -18 -18 1027.3 1018.8
00 18.01 штиль 0 10 км слаб. снег 10/0
[As op]
-15.8 -17.7 85 -16 -16 1029.2 1020.8 -19.0 0.5 80
03 18.01 штиль 0 10 км слаб. снег 10/0 2000 м
[As op]
-14.4 -16.4 85 -14 -14 1028.7 1020.3
06 18.01 ЮВ 1 10 км слаб. снег 10/0
[As op]
-12.0 -14.0 85 -14 -14 1026.7 1018.4
09 18.01 Ю 2 20 км {снег} 10/0
[As op]
-10.1 -12.1 85 -15 -15 1024.8 1016.5
12 18.01 ЮВ 1 20 км {снег} 10/0
[As op]
-9.3 -11.3 85 -12 -12 1022.4 1014.2 -9.3 0.3
15 18.01 Ю 2 20 км 10/0
[As trans]
-9.0 -11.5 82 -13 -13 1018.1 1010.0
21 18.01 ЮВ 3 4000 м слаб. снег 10/0
[As trans]
-7.9 -9.3 90 -14 -14 1016.3 1008.2
00 19.01 Ю 2 4000 м слаб. снег 10/0 2000 м
[As trans]
-8.4 -9.9 89 -13 -13 1015.1 1007.0 -9.3 2 82
03 19.01 Ю 1 4000 м слаб. снег 10/0 2000 м
[As op]
-9.5 -11.1 88 -12 -12 1013.8 1005.6 -10.1
06 19.01 Ю 1 4000 м слаб. снег 10/0 2000 м
[As op]
-8.5 -10.0 89 -11 -11 1010.4 1002.4
09 19.01 ЮВ 2 4000 м слаб. снег 10/0 2000 м
[As op]
-8.6 -9.7 92 -13 -13 1008.1 1000.1
12 19.01 Ю 1 4000 м слаб. снег 10/0 2000 м
[As op]
-7.8 -9.6 87 -10 -10 1007.5 999.5 -7.8 1
15 19.01 Ю 2 4000 м слаб. снег 10/0 2000 м
[As op]
-7.6 -9.8 84 -12 -12 1007.6 999.6
18 19.01 Ю 3 4000 м слаб. снег 10/0 2000 м
[As op]
-7.3 -9.8 82 -13 -13 1008.2 1000.2
21 19.01 Ю 1 4000 м слаб. снег 10/0
[As op]
-7.6 -10.7 78 -10 -10 1010.8 1002.8
00 20.01 Ю 3 10 км слаб. снег 10/0 2000 м
[As op]
-8.4 -11.2 80 -14 -14 1011.7 1003.7 -8.4 1 84
03 20.01 Ю 2 4000 м слаб. снег 10/0 2000 м
[As op]
-8.6 -11.0 83 -13 -13 1010.6 1002.6 -8.6
06 20.01 Ю 2 2000 м слаб. снег {метель} 10/0 2000 м
[As op]
-8.0 -9.4 90 -13 -12 1008.1 1000.1
09 20.01 ЮВ 2 2000 м слаб. снег {метель} 10/0 2000 м
[As op]
-7.4 -8.7 90 -12 -12 1006.7 998.7
12 20.01 Ю 3 4000 м слаб. снег 10/0 2000 м
[As op]
-7.6 -9.0 90 -13 -13 1006.9 998.9 -7.4 4
15 20.01 З 3 10 км слаб. снег 10/0
[As trans]
-7.2 -9.7 82 -13 -13 1008.9 1000.9
00 21.01 В 1 20 км 3/0
[Ci sp]
-24.9 -27.4 80 -28 -28 1020.3 1011.6 -24.9 0.6 87
03 21.01 штиль 0 20 км 1/0
[Ci fib]
-27.8 -30.3 79 -28 -28 1022.7 1013.9 -27.8
06 21.01 В 1 20 км 8/0
[Ci fib]
-28.2 -30.7 79 -32 -32 опасность
обморожения
1024.3 1015.4

 

Местоположение метеостанции Кузьмовка (Эвенкия, Россия): широта 62.32 долгота 92.12 высота над уровнем моря 62 м.

В архиве по умолчанию представлена погода в Кузьмовке за последнюю неделю. Архивные данные за месяц целиком и за предыдущие месяцы, начиная с января 2011 года, Вы можете получить, выбрав интересующий диапазон дат из раскрывающегося списка и нажав кнопку "Ввод!".


*Определитесь, кто Вы:
робот инопланетянин человек

Внимание! Время в таблицах - всемирное. Для получения местного времени необходимо прибавить поправку, которая равна 7 ч.

Смотрите также архив погоды в соседних городах и на ближайших метеорологических станциях:

Погода в Бору (Красноярский край, Россия) (136 км)
Погода в Вельмо (Красноярский край, Россия) (160 км)
Погода в Бахте (Красноярский край, Россия) (162 км)
Погода в Ворогово (Красноярский край, Россия) (195 км)
Погода в Северо-Енисейском (Красноярский край, Россия) (221 км)
Погода в Тутончанах (Эвенкия, Россия) (225 км)
Погода в Верхнеимбатске (Красноярский край, Россия) (232 км)
Погода в Байките (Эвенкия, Россия) (233 км)
Погода в Ярцево (Красноярский край, Россия) (248 км)
Погода в Сыме (Красноярский край, Россия) (297 км)

Пояснения к столбцам:

Ветер - указаны скорость ветра в м/с - средняя за 10 мин, порывы в срок и между сроками (в фигурных скобках) и направление, откуда дует ветер: С - северный, СВ - северо-восточный, В - восточный, ЮВ - юго-восточный, Ю - южный, ЮЗ - юго-западный, З - западный, СЗ - северо-западный.
Видимость - горизонтальная дальность видимости в метрах или километрах. При видимости от 1 до 10 км при отсутствии осадков обычно наблюдается дымка, при ухудшении видимости до 1 км и менее - туман. В сухую погоду видимость может ухудшаться дымом, пылью или мглою.
Явления - указаны атмосферные явления, наблюдавшиеся в срок или в последний час перед сроком; фигурными скобками обозначены явления, наблюдавшиеся между сроками (за 1-3 часа до срока); квадратными скобками обозначены град или гололедные отложения с указанием их диаметра в мм.
Облачность - указаны через наклонную черту общая и нижняя облачность в баллах и высота нижней границы облаков в метрах; квадратными скобками обозначены формы облаков: Ci - перистые, Cs - перисто-слоистые, Cc - перисто-кучевые, Ac - высококучевые, As - высокослоистые, Sc - слоисто-кучевые, Ns - слоисто-дождевые, Cu - кучевые, Cb - кучево-дождевые. Подробнее классификацию облаков см. в Атласе облаков (PDF).
T - Температура воздуха - температура, измеренная на высоте 2 м над землей.
Td - Температура точки росы - температура, при понижении до которой содержащийся в воздухе водяной пар достигнет насыщения.
f - Относительная влажность воздуха - влажноcть воздуха, измеренная на высоте 2 м над землей.
Te - Эффективная температура - температура, которую ощущает одетый по сезону человек в тени. Характеристика душности погоды. При расчете учитывается влияние влажности воздуха и скорости ветра на теплоощущения человека.
Tes - Эффективная температура на солнце - температура, которую ощущает человек, с поправкой на солнечный нагрев. Характеристика знойности погоды. Зависит от высоты солнца над горизонтом, облачности и скорости ветра. Ночью, в пасмурную погоду, а также при ветре 12 м/с и более поправка равна нулю.
P - Атмосферное давление - приведенное к уровню моря атмосферное давление.
Po - Атмосферное давление - измеренное на уровне метеостанции атмосферное давление.
Tmin - Минимальная температура - минимум температуры воздуха на высоте 2 м над землей.
Tmax - Максимальная температура - максимум температуры воздуха на высоте 2 м над землей.
R - Количество осадков - Количество выпавших осадков за период времени, мм. При наведении курсора мыши на число - период времени, за который выпало указанное количество осадков.
R24 - Количество осадков - Количество выпавших осадков за 24 часа, мм.
S - Снежный покров - Высота снежного покрова, см. При наведении курсора мыши на число - состояние снежного покрова и степень покрытия местности в баллах.